Nasa Shuttle, FL

12:32 PM EST on December 14, 2017 (GMT -0500)
Nasa Shuttle

Weather History for KTTS - January, 2014

Change the Weather History Date:

Thursday, January 2, 2014

  Actual Average Record
Temperature  
Mean Temperature 72 °F -  
Max Temperature 81 °F 67 °F 81 °F (2014)
Min Temperature 64 °F 49 °F 35 °F (2008)
Cooling Degree Days 8    
Growing Degree Days 22 (Base 50)    
Moisture  
Dew Point 64 °F    
Average Humidity 83    
Maximum Humidity 94    
Minimum Humidity 52    
Precipitation  
Precipitation 0.15 in - - ()
Sea Level Pressure  
Sea Level Pressure 29.92 in    
Wind  
Wind Speed 7 mph (WSW)    
Max Wind Speed 21 mph    
Max Gust Speed 30 mph    
Visibility 7 miles    
Events Rain    
Averages and records for this station are not official NWS values.
T = Trace of Precipitation, MM = Missing Value Source: NWS Daily Summary

Daily Weather History Graph

Daily Weather History Graph

Search for Another Location

Airport or City:

Trip Planner

Search our weather history database for the weather conditions in past years. The results will help you decide how hot, cold, wet, or windy it might be!

Date:

Astronomy

Jan. 02, 2014 Rise Set
Actual Time 7:15 AM EST 5:38 PM EST
Civil Twilight 6:50 AM EST 6:03 PM EST
Nautical Twilight 6:20 AM EST 6:33 PM EST
Astronomical Twilight 5:51 AM EST 7:02 PM EST
Moon 8:04 AM EST (1/2) 7:22 PM EST (1/2)
Length of Visible Light 11h 13m
Length of Day
10h 22m
New Moon, 2% of the Moon is Illuminated
Jan 2
New Moon
Jan 7
First Quarter
Jan 15
Full
Jan 24
Last Quarter
Jan 30
New

Hourly Weather History & Observations

Time (EST) Temp. Heat Index Dew Point Humidity Pressure Visibility Wind Dir Wind Speed Gust Speed Precip Events Conditions
12:08 AM 68.0 °F - 64.4 °F 88% 30.06 in 10.0 mi NW 3.5 mph - N/A   Overcast
12:28 AM 68.0 °F - 64.4 °F 88% 30.05 in 10.0 mi West 4.6 mph - N/A   Overcast
12:58 AM 67.6 °F - 64.2 °F 89% 30.05 in 10.0 mi North 3.5 mph - N/A   Overcast
1:58 AM 67.3 °F - 64.0 °F 89% 30.03 in 10.0 mi Calm Calm - N/A   Overcast
2:28 AM 68.0 °F - 64.4 °F 88% 30.01 in 10.0 mi NW 2.3 mph - N/A   Overcast
2:33 AM 66.2 °F - 64.4 °F 94% 30.01 in 10.0 mi West 1.2 mph - N/A   Overcast
2:58 AM 66.9 °F - 63.7 °F 89% 30.02 in 10.0 mi WSW 2.3 mph - N/A   Overcast
3:18 AM 66.2 °F - 62.6 °F 88% 30.00 in 10.0 mi WSW 3.5 mph - N/A   Overcast
3:58 AM 66.4 °F - 63.1 °F 89% 30.01 in 10.0 mi West 4.6 mph - N/A   Overcast
4:23 AM 66.2 °F - 62.6 °F 88% 29.99 in 10.0 mi SW 3.5 mph - N/A   Mostly Cloudy
4:28 AM 66.2 °F - 62.6 °F 88% 29.98 in 10.0 mi SW 3.5 mph - N/A   Scattered Clouds
4:58 AM 64.6 °F - 61.3 °F 89% 29.98 in 9.0 mi SSW 3.5 mph - N/A   Clear
5:28 AM 64.4 °F - 60.8 °F 88% 29.97 in 2.0 mi South 3.5 mph - N/A   Clear
5:33 AM 64.4 °F - 60.8 °F 88% 29.97 in 1.2 mi South 2.3 mph - N/A   Clear
5:38 AM 64.4 °F - 60.8 °F 88% 29.97 in 1.0 mi South 2.3 mph - N/A   Clear
5:43 AM 64.4 °F - 60.8 °F 88% 29.97 in 0.8 mi South 3.5 mph - N/A   Clear
5:48 AM 64.4 °F - 60.8 °F 88% 29.97 in 0.8 mi South 3.5 mph - N/A   Mist
5:53 AM 64.4 °F - 60.8 °F 88% 29.97 in 1.0 mi SSW 3.5 mph - N/A   Mist
5:58 AM 64.4 °F - 60.8 °F 88% 29.98 in 1.8 mi SSW 5.8 mph - N/A   Mostly Cloudy
6:13 AM 64.4 °F - 60.8 °F 88% 29.97 in 1.0 mi SSW 6.9 mph - N/A   Overcast
6:23 AM 64.4 °F - 62.6 °F 94% 29.97 in 1.2 mi SW 4.6 mph - N/A   Overcast
6:38 AM 66.2 °F - 62.6 °F 88% 29.96 in 1.0 mi SW 8.1 mph - N/A   Overcast
6:43 AM 66.2 °F - 62.6 °F 88% 29.96 in 0.8 mi SW 6.9 mph - N/A   Mist
6:58 AM 66.6 °F - 63.3 °F 89% 29.98 in 0.8 mi SW 8.1 mph - N/A   Mist
7:03 AM 66.2 °F - 62.6 °F 88% 29.97 in 1.0 mi SW 8.1 mph - N/A   Mist
7:18 AM 66.2 °F - 64.4 °F 94% 29.97 in 1.2 mi SW 9.2 mph - N/A   Overcast
7:33 AM 68.0 °F - 64.4 °F 88% 29.97 in 2.0 mi SSW 10.4 mph - N/A   Overcast
7:38 AM 68.0 °F - 64.4 °F 88% 29.97 in 3.0 mi SW 10.4 mph - N/A   Overcast
7:43 AM 68.0 °F - 64.4 °F 88% 29.97 in 1.5 mi SW 10.4 mph - N/A   Overcast
7:48 AM 68.0 °F - 64.4 °F 88% 29.97 in 1.0 mi SW 8.1 mph - N/A   Overcast
7:58 AM 68.0 °F - 64.4 °F 88% 29.98 in 1.5 mi SW 11.5 mph - N/A   Overcast
8:08 AM 68.0 °F - 64.4 °F 88% 29.98 in 3.0 mi SW 11.5 mph - N/A   Overcast
8:58 AM 68.2 °F - 64.4 °F 88% 29.99 in 10.0 mi SSW 12.7 mph - N/A   Overcast
9:23 AM 69.8 °F - 66.2 °F 88% 29.98 in 10.0 mi SSW 10.4 mph - N/A   Mostly Cloudy
9:38 AM 69.8 °F - 66.2 °F 88% 29.98 in 10.0 mi SSW 11.5 mph - N/A   Mostly Cloudy
9:58 AM 71.4 °F - 66.7 °F 85% 29.99 in 10.0 mi SSW 16.1 mph - N/A   Scattered Clouds
10:58 AM 76.3 °F - 66.0 °F 70% 29.97 in 10.0 mi SW 18.4 mph - N/A   Clear
11:58 AM 79.7 °F - 63.0 °F 56% 29.92 in 10.0 mi SW 19.6 mph 26.5 mph N/A   Clear
12:58 PM 81.7 °F 82.9 °F 63.0 °F 53% 29.87 in 10.0 mi SW 19.6 mph - N/A   Partly Cloudy
1:58 PM 80.8 °F 81.9 °F 62.1 °F 53% 29.83 in 10.0 mi SW 16.1 mph 25.3 mph N/A   Mostly Cloudy
2:58 PM 81.9 °F 82.9 °F 62.8 °F 52% 29.81 in 10.0 mi SW 20.7 mph 29.9 mph N/A   Scattered Clouds
3:13 PM 78.8 °F - 66.2 °F 65% 29.81 in 10.0 mi WSW 17.3 mph 25.3 mph N/A   Light Drizzle
3:18 PM 77.0 °F - 66.2 °F 69% 29.82 in 10.0 mi West 15.0 mph 29.9 mph N/A   Light Drizzle
3:24 PM 77.0 °F - 66.2 °F 69% 29.82 in 10.0 mi West 11.5 mph 29.9 mph N/A   Overcast
3:36 PM 77.0 °F - 66.2 °F 69% 29.82 in 10.0 mi WNW 17.3 mph 26.5 mph N/A Rain Light Rain
3:58 PM 71.4 °F - 65.1 °F 80% 29.84 in 5.0 mi WNW 16.1 mph 24.2 mph 0.01 in Rain Light Rain
4:00 PM 71.6 °F - 64.4 °F 78% 29.83 in 6.0 mi WNW 12.7 mph 24.2 mph N/A   Haze
4:04 PM 71.6 °F - 64.4 °F 78% 29.83 in 6.0 mi WNW 15.0 mph 24.2 mph N/A Rain Light Rain
4:34 PM 69.8 °F - 64.4 °F 83% 29.83 in 10.0 mi WNW 10.4 mph - N/A   Mostly Cloudy
4:58 PM 70.0 °F - 64.0 °F 81% 29.84 in 10.0 mi WNW 9.2 mph - 0.04 in   Mostly Cloudy
5:00 PM 69.8 °F - 64.4 °F 83% 29.83 in 10.0 mi WNW 8.1 mph - N/A   Light Drizzle
5:09 PM 69.8 °F - 64.4 °F 83% 29.83 in 9.0 mi WNW 9.2 mph - N/A   Mostly Cloudy
5:19 PM 69.8 °F - 64.4 °F 83% 29.84 in 8.0 mi West 12.7 mph 19.6 mph N/A Rain Light Rain
5:58 PM 69.4 °F - 64.4 °F 84% 29.85 in 10.0 mi WSW 11.5 mph - 0.02 in Rain Light Rain
6:13 PM 69.8 °F - 64.4 °F 83% 29.85 in 10.0 mi WSW 10.4 mph - N/A   Mostly Cloudy
6:44 PM 69.8 °F - 64.4 °F 83% 29.86 in 10.0 mi WSW 10.4 mph - N/A Rain Light Rain
6:58 PM 69.3 °F - 64.6 °F 85% 29.88 in 10.0 mi West 8.1 mph - 0.02 in Rain Light Rain
7:33 PM 69.8 °F - 64.4 °F 83% 29.87 in 10.0 mi WSW 9.2 mph - N/A   Mostly Cloudy
7:58 PM 69.4 °F - 65.1 °F 86% 29.88 in 10.0 mi WSW 8.1 mph - 0.01 in   Overcast
8:06 PM 69.8 °F - 64.4 °F 83% 29.87 in 10.0 mi West 6.9 mph - N/A   Light Drizzle
8:16 PM 69.8 °F - 64.4 °F 83% 29.88 in 10.0 mi SW 9.2 mph - N/A Rain Light Rain
8:36 PM 69.8 °F - 64.4 °F 83% 29.87 in 10.0 mi SW 10.4 mph - N/A Rain Light Rain
8:46 PM 68.0 °F - 64.4 °F 88% 29.86 in 6.0 mi SW 9.2 mph - N/A Rain Light Rain
8:58 PM 68.5 °F - 64.2 °F 86% 29.86 in 6.0 mi SSW 9.2 mph - 0.05 in   Light Drizzle
8:59 PM 68.0 °F - 64.4 °F 88% 29.85 in 7.0 mi SW 9.2 mph - N/A   Mostly Cloudy
9:58 PM 68.0 °F - 63.7 °F 86% 29.86 in 10.0 mi WSW 10.4 mph - 0.00 in   Mostly Cloudy
10:58 PM 67.5 °F - 63.1 °F 86% 29.89 in 10.0 mi West 10.4 mph - N/A   Scattered Clouds
11:03 PM 68.0 °F - 62.6 °F 83% 29.89 in 10.0 mi West 11.5 mph - N/A   Mostly Cloudy
11:18 PM 68.0 °F - 62.6 °F 83% 29.89 in 10.0 mi West 12.7 mph - N/A   Overcast
11:53 PM 66.2 °F - 62.6 °F 88% 29.89 in 10.0 mi West 10.4 mph - N/A   Overcast
11:58 PM 66.7 °F - 61.9 °F 84% 29.90 in 10.0 mi West 9.2 mph - N/A   Overcast